Location: ?
(35.4554°N, 139.3092°E)
Time: 21:35:13
(UTC+00:00)

Cosmos 2298 Rocket - Pass Details

Date: 21 April 2021
Orbit: 777 x 783 km, 74.0° (Epoch: 10 May)

Event Time Altitude Azimuth Distance (km) Brightness Sun altitude
Exits shadow 18:29:28 33° 233° (SW) 1,298 4.6 -18.2°
Maximum altitude 18:31:35 52° 290° (WNW) 964 4.2 -17.8°
Drops below altitude 10° 18:36:45 10° 7° (N) 2,334 7.0 -16.9°
Sets 18:39:13 0° 12° (NNE) 3,264 7.9 -16.4°
